Location: Utrecht
(52.0907°N, 5.1214°E)
Time: 07:47:43
(UTC+02:00)

SPROUT - Pass Details

Date: 03 July 2022
Orbit: 588 x 598 km, 97.9° (Epoch: 18 August)

Event Time Altitude Azimuth Distance (km) Brightness Sun altitude
Exits shadow 01:01:45 - 114° (ESE) 2,125 ? -14.4°
Reaches altitude 10° 01:02:23 10° 108° (ESE) 1,919 ? -14.4°
Maximum altitude 01:05:29 21° 60° (ENE) 1,362 ? -14.5°
Drops below altitude 10° 01:08:36 10° 12° (NNE) 1,931 ? -14.5°
Sets 01:11:10 0° 356° (N) 2,840 ? -14.6°
